Wolf Creek, OR

7:14 PM PST on February 20, 2017 (GMT -0800)
Sexton Summit

Weather History for KSXT - June, 2013

Change the Weather History Date:

Wednesday, June 12, 2013

  Actual Average Record
Temperature  
Mean Temperature 46 °F -  
Max Temperature 57 °F 65 °F 84 °F (2002)
Min Temperature 37 °F 43 °F 36 °F (2001)
Degree Days  
Heating Degree Days 19    
Moisture  
Dew Point 39 °F    
Average Humidity 86    
Maximum Humidity 100    
Minimum Humidity 53    
Precipitation  
Precipitation 0.00 in - - ()
Sea Level Pressure  
Sea Level Pressure 30.13 in    
Wind  
Wind Speed 7 mph (North)    
Max Wind Speed 10 mph    
Max Gust Speed 21 mph    
Visibility 6 miles    
Events Fog    
Averages and records for this station are not official NWS values.
T = Trace of Precipitation, MM = Missing Value Source: NWS Daily Summary

Daily Weather History Graph

Daily Weather History Graph

Search for Another Location

Airport or City:

Trip Planner

Search our weather history database for the weather conditions in past years. The results will help you decide how hot, cold, wet, or windy it might be!

Date:

Astronomy

Jun. 12, 2013 Rise Set
Actual Time 5:35 AM PDT 8:51 PM PDT
Civil Twilight 5:00 AM PDT 9:26 PM PDT
Nautical Twilight 4:15 AM PDT 10:11 PM PDT
Astronomical Twilight 3:20 AM PDT 11:07 PM PDT
Moon 9:23 AM PDT (6/12) 11:25 PM PDT (6/12)
Length of Visible Light 16h 26m
Length of Day
15h 16m
Waxing Crescent, 15% of the Moon is Illuminated
Jun 12
Waxing Crescent
Jun 16
First Quarter
Jun 23
Full
Jun 29
Last Quarter
Jul 8
New

Hourly Weather History & Observations

Time (PDT) Temp. Windchill Dew Point Humidity Pressure Visibility Wind Dir Wind Speed Gust Speed Precip Events Conditions
12:56 AM 39.9 °F 33.9 °F 39.0 °F 97% 30.10 in 10.0 mi North 9.2 mph - N/A   Partly Cloudy
1:56 AM 39.0 °F 32.3 °F 39.0 °F 100% 30.10 in 10.0 mi North 10.4 mph - N/A   Partly Cloudy
2:17 AM 39.2 °F 33.0 °F 39.2 °F 100% 30.10 in 1.8 mi North 9.2 mph - N/A   Mostly Cloudy
2:20 AM 39.2 °F 33.0 °F 39.2 °F 100% 30.10 in 1.0 mi North 9.2 mph - N/A   Mist
2:27 AM 39.2 °F 33.0 °F 39.2 °F 100% 30.10 in 0.5 mi North 9.2 mph - N/A Fog Fog
2:34 AM 39.2 °F 33.0 °F 39.2 °F 100% 30.10 in 0.2 mi North 9.2 mph - N/A Fog Fog
2:56 AM 39.0 °F 32.8 °F 39.0 °F 100% 30.08 in 0.2 mi North 9.2 mph - N/A Fog Fog
3:56 AM 39.0 °F 33.4 °F 39.0 °F 100% 30.07 in 0.2 mi North 8.1 mph - N/A Fog Fog
4:56 AM 39.0 °F 33.4 °F 39.0 °F 100% 30.08 in 0.2 mi North 8.1 mph - N/A Fog Fog
5:56 AM 37.9 °F 32.1 °F 37.9 °F 100% 30.09 in 0.2 mi North 8.1 mph - N/A Fog Fog
6:56 AM 39.0 °F 34.8 °F 39.0 °F 100% 30.11 in 0.2 mi North 5.8 mph - N/A Fog Fog
7:56 AM 39.9 °F - 39.9 °F 100% 30.12 in 0.2 mi Calm Calm - N/A Fog Fog
8:49 AM 39.2 °F 35.9 °F 39.2 °F 100% 30.13 in 0.5 mi Variable 4.6 mph - N/A Fog Fog
8:56 AM 41.0 °F 37.1 °F 39.9 °F 96% 30.13 in 1.0 mi Variable 5.8 mph - N/A   Mist
9:08 AM 41.0 °F 39.0 °F 39.2 °F 93% 30.13 in 2.5 mi Variable 3.5 mph - N/A   Overcast
9:18 AM 41.0 °F - 41.0 °F 100% 30.13 in 1.0 mi Calm Calm - N/A   Mist
9:23 AM 41.0 °F 38.0 °F 41.0 °F 100% 30.13 in 2.5 mi Variable 4.6 mph - N/A   Overcast
9:31 AM 41.0 °F - 39.2 °F 93% 30.14 in 7.0 mi Calm Calm - N/A   Overcast
9:56 AM 41.0 °F - 39.0 °F 93% 30.15 in 10.0 mi Calm Calm - N/A   Overcast
10:35 AM 42.8 °F 41.1 °F 39.2 °F 87% 30.15 in 10.0 mi Variable 3.5 mph - N/A   Overcast
10:56 AM 43.0 °F - 39.9 °F 89% 30.16 in 10.0 mi Calm Calm - N/A   Overcast
11:56 AM 46.0 °F - 39.0 °F 76% 30.16 in 10.0 mi Calm Calm - N/A   Overcast
12:06 PM 48.2 °F - 39.2 °F 71% 30.16 in 10.0 mi Variable 3.5 mph - N/A   Overcast
12:33 PM 50.0 °F - 39.2 °F 66% 30.16 in 10.0 mi Calm Calm - N/A   Overcast
12:56 PM 52.0 °F - 39.9 °F 63% 30.14 in 10.0 mi Variable 3.5 mph - N/A   Scattered Clouds
1:56 PM 53.1 °F - 39.0 °F 59% 30.14 in 10.0 mi Calm Calm - N/A   Partly Cloudy
2:56 PM 55.0 °F - 39.0 °F 55% 30.13 in 10.0 mi Variable 4.6 mph - N/A   Clear
3:56 PM 55.9 °F - 39.0 °F 53% 30.12 in 10.0 mi Variable 4.6 mph - N/A   Clear
4:56 PM 55.9 °F - 39.0 °F 53% 30.12 in 10.0 mi Variable 6.9 mph - N/A   Clear
5:56 PM 54.0 °F - 39.0 °F 57% 30.12 in 10.0 mi Variable 3.5 mph - N/A   Clear
6:56 PM 51.1 °F - 39.0 °F 63% 30.13 in 10.0 mi Variable 3.5 mph 20.7 mph N/A   Clear
7:56 PM 48.0 °F - 39.0 °F 71% 30.14 in 10.0 mi North 9.2 mph 18.4 mph N/A   Clear
8:56 PM 44.1 °F 39.5 °F 37.9 °F 79% 30.15 in 10.0 mi North 8.1 mph - N/A   Clear
9:56 PM 42.1 °F 36.6 °F 39.0 °F 89% 30.17 in 10.0 mi North 9.2 mph 17.3 mph N/A   Mostly Cloudy
10:31 PM 41.0 °F 35.8 °F 39.2 °F 93% 30.17 in 10.0 mi NNW 8.1 mph - N/A   Overcast
10:56 PM 41.0 °F 36.4 °F 39.0 °F 93% 30.17 in 10.0 mi NNW 6.9 mph - N/A   Overcast
11:16 PM 41.0 °F 36.4 °F 39.2 °F 93% 30.16 in 10.0 mi NNW 6.9 mph - N/A   Overcast
11:42 PM 41.0 °F 37.1 °F 39.2 °F 93% 30.16 in 10.0 mi Variable 5.8 mph - N/A   Overcast
11:56 PM 41.0 °F 36.4 °F 39.0 °F 93% 30.16 in 10.0 mi North 6.9 mph - N/A   Overcast